Location: Fort Wayne
(41.1310°N, 85.1290°W)
Time: 02:39:31
(UTC-04:00)

Oscar 19 - Visible Passes

Search period start: 29 July 2014 00:00
Search period end: 08 August 2014 00:00
Orbit: 774 x 792 km, 98.5° (Epoch: 27 July)

Date Brightness Start Highest point End Pass type
(mag) Time Alt. Az. Time Alt. Az. Time Alt. Az.
29 Jul 11.4 02:50:43 10° NNE 02:55:35 41° E 02:55:40 41° E visible
29 Jul 12.0 04:30:33 10° NNW 04:34:42 25° WNW 04:36:14 22° W visible
30 Jul 12.4 02:19:57 10° NE 02:23:40 21° E 02:23:40 21° E visible
30 Jul 11.1 03:58:27 10° N 04:03:23 47° WNW 04:04:15 43° W visible
31 Jul 10.5 03:26:44 10° NNE 03:31:56 89° ESE 03:32:15 80° SSW visible
31 Jul 12.7 05:08:31 10° NW 05:10:30 12° WNW 05:12:29 10° W visible
01 Aug 11.3 02:55:22 10° NNE 03:00:15 45° E 03:00:15 45° E visible
01 Aug 12.1 04:35:24 10° NNW 04:39:22 23° WNW 04:40:50 20° W visible
02 Aug 12.3 02:24:29 10° NE 02:28:15 23° E 02:28:15 23° E visible
02 Aug 11.2 04:03:13 10° N 04:08:05 42° WNW 04:08:50 40° W visible
03 Aug 13.1 01:55:04 10° ENE 01:56:16 11° E 01:56:16 11° E visible
03 Aug 10.5 03:31:27 10° NNE 03:36:39 83° WNW 03:36:50 80° WSW visible
03 Aug 12.8 05:13:47 10° NW 05:15:09 11° WNW 05:16:30 10° WNW visible
04 Aug 11.2 03:00:01 10° NNE 03:04:50 50° E 03:04:50 50° E visible
04 Aug 12.2 04:40:15 10° NNW 04:44:02 21° WNW 04:45:24 19° W visible
05 Aug 12.2 02:29:03 10° NE 02:32:50 25° E 02:32:50 25° E visible
05 Aug 11.3 04:07:59 10° N 04:12:46 38° WNW 04:13:24 37° W visible
06 Aug 13.0 01:59:10 10° ENE 02:00:50 13° E 02:00:50 13° E visible
06 Aug 10.6 03:36:10 10° N 03:41:21 75° WNW 03:41:24 75° W visible
07 Aug 11.1 03:04:41 10° NNE 03:09:24 55° E 03:09:24 55° E visible
07 Aug 12.3 04:45:08 10° NNW 04:48:41 19° WNW 04:49:58 18° W visible
